Regional Weather Roundup
Issued by NWS Wilmington, NC

Home | Current Version | Previous Version | Text Only | Print | Product List | Glossary On
Versions: 1 2 3 4 5 6 7 8 9 10 11 12 13 14 15 16 17 18 19 20 21 22 23 24 25 26 27 28 29 30 31 32 33 34 35 36 37 38 39 40 41 42 43 44 45 46 47 48 49
000
ASUS42 KILM 121813
RWRILM
RWRILM
REGIONAL HOURLY WEATHER ROUNDUP
NATIONAL WEATHER SERVICE WILMINGTON NC
100 PM EST FRI FEB 12 2016

NOTE: "FAIR" INDICATES FEW OR NO CLOUDS BELOW 12,000 FEET WITH NO
SIGNIFICANT WEATHER AND/OR OBSTRUCTIONS TO VISIBILITY.

...............WFO WILMINGTON COUNTY WARNING AREA...............

......COASTAL NC AND SC COUNTIES......

CITY           SKY/WX    TMP DP  RH WIND       PRES   REMARKS
WILMINGTON     CLOUDY    35  31  85 VRB7      30.10F WCI  29
N MYRTLE BEACH CLOUDY    43  30  60 N7        30.06F
MYRTLE BEACH   PTSUNNY   46  28  49 N7        30.08F

......INLAND NC AND SC COUNTIES.......

CITY           SKY/WX    TMP DP  RH WIND       PRES   REMARKS
LUMBERTON      MIX PCPN  33  25  72 N8        30.13F WCI  26
ELIZABETHTOWN  CLOUDY    33  27  81 CALM      30.11F
WHITEVILLE     CLOUDY    38  22  52 N6        30.09F WCI  33
FLORENCE       CLOUDY    39  19  44 N7        30.12F WCI  34
DARLINGTON     CLOUDY    36  21  55 N7        30.14F WCI  30
KINGSTREE      CLOUDY    43  28  56 NW5       30.10F
HARTSVILLE     CLOUDY    36  23  60 NE8       30.11F WCI  29
BENNETTSVILLE  PTSUNNY   36  27  69 NE8       30.13F WCI  29
CONWAY         PTSUNNY   41  28  60 N3        30.09F
GEORGETOWN     CLOUDY    46  36  66 E5        30.07F
MARION         CLOUDY    41  23  48 NE6       30.11F

....................REST OF NORTH CAROLINA......................

.........EASTERN NC.........

CITY           SKY/WX    TMP DP  RH WIND       PRES   REMARKS
CAPE HATTERAS  LGT RAIN  33  32  96 NE10G18   30.12F WCI  25
JACKSONVILLE   CLOUDY    32  25  74 CALM      30.11F
MOREHEAD CITY  HVY RAIN  35  33  92 N17       30.09F FOG     WCI  25
KENANSVILLE    MIX PCPN  31  28  88 CALM      30.13F
NEW BERN       FRZ RAIN  33  30  88 E8        30.12F FOG     WCI  26
ELIZABETH CITY CLOUDY    33  18  53 E9        30.18F WCI  25

.........CENTRAL NC.........

CITY           SKY/WX    TMP DP  RH WIND       PRES   REMARKS
RALEIGH DURHAM LGT SNOW  27  18  69 CALM      30.16F FOG
ROCKY MOUNT    CLOUDY    31  15  52 E7        30.16F WCI  24
ROANOKE RAPIDS NOT AVBL
FAYETTEVILLE   FRZ RAIN  30  25  81 N6        30.14F WCI  24
HOFFMAN        NOT AVBL

.........WESTERN NC.........

CITY           SKY/WX    TMP DP  RH WIND       PRES   REMARKS
CHARLOTTE      CLOUDY    32  18  56 VRB3      30.12F
GREENSBORO     FLURRIES  32   7  35 CALM      30.10F
HICKORY        NOT AVBL
BOONE          NOT AVBL
ASHEVILLE      NOT AVBL

.....................REST OF SOUTH CAROLINA.....................

.........EASTERN SC.........

CITY           SKY/WX    TMP DP  RH WIND       PRES   REMARKS
CHARLESTON     CLOUDY    53  47  79 CALM      30.06F
BEAUFORT MCAS  CLOUDY    58  52  80 VRB3      30.05F
HILTON HEAD    PTSUNNY   61  55  82 S7        30.07F

.........CENTRAL SC.........

CITY           SKY/WX    TMP DP  RH WIND       PRES   REMARKS
COLUMBIA       CLOUDY    44  24  45 N7        30.09F
ORANGEBURG     CLOUDY    50  37  61 VRB3      30.08F
SUMTER SHAW    NOT AVBL

.........WESTERN SC.........

CITY           SKY/WX    TMP DP  RH WIND       PRES   REMARKS
GREENVILLE     NOT AVBL
ROCK HILL      CLOUDY    30  25  81 VRB5      30.11F WCI  25
ANDERSON       SUNNY     46  24  42 CALM      30.08F
CLEMSON        NOT AVBL
GREENWOOD      MOSUNNY   46  25  43 VRB3      30.10F


...................COASTAL AND OFFSHORE REPORTS..................

................LOCAL PIERS AND NC RESERVE................


STATION/POSITION TIME  SKY/WX   TEMP    WIND        PRES    VSBY
                                AIR SEA DIR/SP/G
                 (UTC)          (F)     (DEG/KT/KT) (MB)    (MI)
JOHNY MRCER PIER 1700            35 52  360/ 11/ 16 1018.5F
NC RESRV MASNBRO NOT AVBL
OCEAN CREST PIER NOT AVBL
SPRINGMAID  PIER 1700            43 48  350/  8/ 12 1019.5F


................COASTAL AND OFFSHORE BUOYS................


STATION/POSITION TIME  SKY/WX   TEMP    WIND        PRES    VSBY
                                AIR SEA DIR/SP/G
                 (UTC)          (F)     (DEG/KT/KT) (MB)    (MI)
DIMNDSHOAL 41025 1750            46 59   40/ 14/ 21 1019.4F
WVE H/P(F/S)=  3/ 7 SWL H/P/D(F/S/D)=  2/ 50/ 7

CAPE LOOKOUT     NOT AVBL
ONSLOW BAY 41036 NOT AVBL
ONSLOW BAY 41064 1708            51 59              1017.3F
ONSLOW BAY 41159 1755               59                N/A
WVE H/P(F/S)=  4/ 5

5SE WRITBC 41038 1708            44 51   40/ 19/ 23 1019.0F
MASNBO INL 41110 1706               51                N/A
WVE H/P(F/S)=  6/ 6

WILM HARBR 41108 1756               52                N/A
WVE H/P(F/S)=  4/ 6

27SE WRITB 41037 1708            32 62   70/ 14/ 19 1017.5F
FRYING PAN 41013 1800            56 54  300/  6/  8 1016.1F
SUNST NRSH 41024 NOT AVBL
CAPRS NRSH 41029 1708            48      50/ 10/ 14 1018.7F
EDISTO     41004 1750            59 68  270/ 17/ 21 1017.2F
WVE H/P(F/S)=  5/ 6 SWL H/P/D(F/S/D)=  2/10



..........OFFSHORE BUOYS BEYOND 100 NM OFFSHORE...........
.....IN A TRIANGLE---HAT TO BERMUDA TO BAHAMAS TO HAT.....


STATION/POSITION TIME  SKY/WX   TEMP    WIND        PRES    VSBY
                                AIR SEA DIR/SP/G
                 (UTC)          (F)     (DEG/KT/KT) (MB)    (MI)
150E HAT   41001 1700            50 69  130/  8/ 12 1023.3F
W BERMUDA  41048 1750            61 70  220/  8/ 12 1023.5F
WVE H/P(F/S)= 10/10 SWL H/P/D(F/S/D)= 10/330/10

ATLANTIC S 41049 1750            71 75   20/  8/ 12 1023.3F
WVE H/P(F/S)=  9/11 SWL H/P/D(F/S/D)= 10/290/11

E BAHAMAS  41046 1750            75 79   60/ 17/ 21 1021.3F
WVE H/P(F/S)=  7/10 SWL H/P/D(F/S/D)=  5/330/10

NE BAHAMAS 41047 1750            69 75  100/  8/ 12 1024.4F
WVE H/P(F/S)=  6/ 9 SWL H/P/D(F/S/D)=  7/320/ 9

120E CANVRL41010 1720            68 72              1024.5F

END



USA.gov is the U.S. government's official web portal to all federal, state and local government web resources and services.